Voltar ao catálogo

XINGYUN-2 01

AtivoComunicaçõesSSO
NORAD 45602·PAYLOAD·🇨🇳 China

Lançado May 12, 2020 de Jiuquan Satellite Launch Center

Loading…

Próximas Passagens (próximas 24 horas)

TLE

AtualizadoSource: Space-Track

Época: Sep 14, 2026, 14:50 UTC

1 45602U 20028A   26257.61811694  .00001178  00000-0  72090-4 0  9996
2 45602  97.4947 248.3018 0007172 254.5220 105.5218 15.12130837348358

Acompanhe XINGYUN-2 01 em tempo real com AllMySat

Download on the App Store